AAL900 KPIE-KIND

Flight info

Callsign AAL900
Flight time 1h 50m
Altitude 34000
Route ENDED2 LACEN DCT BRUTS Q118 KAILL DCT IIU DCT HAGAL GIIBS4
Aircraft A21N/M-SDE2E3FGHIRWXY/LB1

Departure

Time 2026-04-25 12:17
Airport St. Petersburg Clearwater International Airport (KPIE)

Arrival

Time 2026-04-25 14:08
Airport Indianapolis International Airport (KIND)
Time Latitude Longitude Altitude Speed Heading
2026-04-25 11:50 27.90766 -82.69160 13 ft 0 kts 178°
2026-04-25 12:07 27.90768 -82.69160 13 ft 1 kts 178°
2026-04-25 12:07 27.90783 -82.69162 13 ft 2 kts 170°
2026-04-25 12:07 27.90801 -82.69169 13 ft 2 kts 155°
2026-04-25 12:08 27.90817 -82.69183 13 ft 2 kts 131°
2026-04-25 12:08 27.90826 -82.69199 13 ft 2 kts 106°
2026-04-25 12:08 27.90827 -82.69217 12 ft 2 kts 87°
2026-04-25 12:08 27.90827 -82.69219 12 ft 0 kts 88°
2026-04-25 12:09 27.90827 -82.69215 12 ft 1 kts 87°
2026-04-25 12:10 27.90828 -82.69210 12 ft 0 kts 86°
2026-04-25 12:10 27.90828 -82.69206 12 ft 1 kts 86°
2026-04-25 12:10 27.90829 -82.69171 12 ft 7 kts 87°
2026-04-25 12:10 27.90831 -82.69102 12 ft 9 kts 89°
2026-04-25 12:11 27.90833 -82.69034 12 ft 8 kts 88°
2026-04-25 12:11 27.90819 -82.68975 12 ft 8 kts 141°
2026-04-25 12:11 27.90760 -82.68955 12 ft 9 kts 171°
2026-04-25 12:11 27.90694 -82.68944 12 ft 10 kts 171°
2026-04-25 12:12 27.90621 -82.68931 12 ft 10 kts 171°
2026-04-25 12:12 27.90546 -82.68918 13 ft 10 kts 171°
2026-04-25 12:12 27.90472 -82.68906 14 ft 10 kts 172°
2026-04-25 12:12 27.90396 -82.68893 13 ft 11 kts 171°
2026-04-25 12:13 27.90313 -82.68879 13 ft 12 kts 171°
2026-04-25 12:13 27.90226 -82.68864 13 ft 12 kts 172°
2026-04-25 12:13 27.90134 -82.68861 13 ft 13 kts 181°
2026-04-25 12:13 27.90042 -82.68865 13 ft 13 kts 181°
2026-04-25 12:14 27.89947 -82.68867 13 ft 13 kts 177°
2026-04-25 12:14 27.89852 -82.68854 13 ft 13 kts 169°
2026-04-25 12:14 27.89762 -82.68835 12 ft 10 kts 171°
2026-04-25 12:14 27.89711 -82.68821 12 ft 5 kts 148°
2026-04-25 12:15 27.89692 -82.68793 12 ft 4 kts 107°
2026-04-25 12:15 27.89691 -82.68753 12 ft 5 kts 83°
2026-04-25 12:15 27.89698 -82.68707 12 ft 4 kts 81°
2026-04-25 12:15 27.89700 -82.68690 12 ft 2 kts 82°
2026-04-25 12:16 27.89702 -82.68669 12 ft 3 kts 81°
2026-04-25 12:16 27.89707 -82.68639 12 ft 4 kts 69°
2026-04-25 12:16 27.89733 -82.68623 12 ft 4 kts
2026-04-25 12:16 27.89772 -82.68627 12 ft 6 kts 350°
2026-04-25 12:17 27.89910 -82.68652 12 ft 54 kts 351°
2026-04-25 12:17 27.90550 -82.68763 13 ft 128 kts 351°
2026-04-25 12:17 27.91640 -82.68948 117 ft 176 kts 352°
2026-04-25 12:17 27.92856 -82.69160 743 ft 181 kts 351°
2026-04-25 12:18 27.94125 -82.69401 1330 ft 194 kts 353°
2026-04-25 12:18 27.95550 -82.69245 1574 ft 222 kts 20°
2026-04-25 12:18 27.97082 -82.68509 1520 ft 250 kts 26°
2026-04-25 12:18 27.98698 -82.67657 1524 ft 256 kts 25°
2026-04-25 12:19 28.01632 -82.67024 1637 ft 264 kts 359°
2026-04-25 12:19 28.04094 -82.67258 2729 ft 269 kts 355°
2026-04-25 12:19 28.05941 -82.67486 3748 ft 270 kts 353°
2026-04-25 12:20 28.07772 -82.67924 4690 ft 274 kts 345°
2026-04-25 12:20 28.09611 -82.68528 5611 ft 277 kts 343°
2026-04-25 12:20 28.11476 -82.69149 6547 ft 279 kts 343°
2026-04-25 12:20 28.13327 -82.69752 7484 ft 280 kts 343°
2026-04-25 12:21 28.15193 -82.70347 8431 ft 279 kts 343°
2026-04-25 12:21 28.17067 -82.70940 9243 ft 283 kts 343°
2026-04-25 12:21 28.18974 -82.71527 10083 ft 285 kts 343°
2026-04-25 12:21 28.20902 -82.72142 10757 ft 293 kts 343°
2026-04-25 12:22 28.22931 -82.72791 11114 ft 312 kts 343°
2026-04-25 12:22 28.25098 -82.73465 11517 ft 328 kts 344°
2026-04-25 12:22 28.27331 -82.74146 12170 ft 335 kts 344°
2026-04-25 12:22 28.29571 -82.74844 12997 ft 336 kts 343°
2026-04-25 12:23 28.31830 -82.75553 13816 ft 336 kts 343°
2026-04-25 12:23 28.34110 -82.76266 14516 ft 340 kts 343°
2026-04-25 12:23 28.36420 -82.76987 15188 ft 345 kts 343°
2026-04-25 12:23 28.38752 -82.77714 15829 ft 349 kts 343°
2026-04-25 12:24 28.41122 -82.78354 16456 ft 354 kts 346°
2026-04-25 12:24 28.43560 -82.78840 17076 ft 359 kts 349°
2026-04-25 12:24 28.46058 -82.79261 17678 ft 363 kts 349°
2026-04-25 12:24 28.48597 -82.79676 18278 ft 368 kts 349°
2026-04-25 12:25 28.51155 -82.80093 18861 ft 372 kts 349°
2026-04-25 12:25 28.53738 -82.80514 19472 ft 374 kts 349°
2026-04-25 12:25 28.56332 -82.80938 20079 ft 377 kts 349°
2026-04-25 12:25 28.58966 -82.81381 20652 ft 380 kts 349°
2026-04-25 12:26 28.61571 -82.81847 21216 ft 383 kts 348°
2026-04-25 12:26 28.64240 -82.82330 21760 ft 386 kts 348°
2026-04-25 12:26 28.66887 -82.82809 22300 ft 388 kts 348°
2026-04-25 12:26 28.69578 -82.83297 22843 ft 390 kts 348°
2026-04-25 12:27 28.72309 -82.83791 23373 ft 393 kts 348°
2026-04-25 12:27 28.75022 -82.84284 23867 ft 395 kts 348°
2026-04-25 12:27 28.77762 -82.84782 24345 ft 398 kts 348°
2026-04-25 12:27 28.80495 -82.85278 24820 ft 400 kts 349°
2026-04-25 12:28 28.83276 -82.85782 25285 ft 402 kts 349°
2026-04-25 12:28 28.86026 -82.86279 25726 ft 405 kts 349°
2026-04-25 12:28 28.88826 -82.86787 26147 ft 407 kts 349°
2026-04-25 12:28 28.91641 -82.87298 26539 ft 409 kts 349°
2026-04-25 12:29 28.94488 -82.87814 26924 ft 412 kts 349°
2026-04-25 12:29 28.97344 -82.88332 27292 ft 414 kts 350°
2026-04-25 12:29 29.00221 -82.88854 27652 ft 417 kts 350°
2026-04-25 12:29 29.03076 -82.89372 27990 ft 419 kts 350°
2026-04-25 12:30 29.05994 -82.89902 28311 ft 422 kts 350°
2026-04-25 12:30 29.08899 -82.90430 28637 ft 424 kts 350°
2026-04-25 12:30 29.11851 -82.90968 28981 ft 426 kts 350°
2026-04-25 12:30 29.14773 -82.91500 29315 ft 427 kts 351°
2026-04-25 12:31 29.17713 -82.92036 29650 ft 429 kts 351°
2026-04-25 12:31 29.20707 -82.92580 29985 ft 430 kts 351°
2026-04-25 12:31 29.23658 -82.93118 30378 ft 429 kts 351°
2026-04-25 12:31 29.26587 -82.93652 30785 ft 427 kts 351°
2026-04-25 12:32 29.29558 -82.94195 31191 ft 426 kts 351°
2026-04-25 12:32 29.32460 -82.94725 31551 ft 425 kts 351°
2026-04-25 12:32 29.35405 -82.95265 31864 ft 425 kts 350°
2026-04-25 12:32 29.38387 -82.95811 32197 ft 425 kts 350°
2026-04-25 12:33 29.41308 -82.96346 32521 ft 425 kts 350°
2026-04-25 12:33 29.44281 -82.96892 32768 ft 426 kts 350°
2026-04-25 12:33 29.47200 -82.97470 32991 ft 427 kts 348°
2026-04-25 12:33 29.50135 -82.98229 33232 ft 428 kts 345°
2026-04-25 12:34 29.53002 -82.99159 33462 ft 429 kts 342°
2026-04-25 12:34 29.55859 -83.00284 33703 ft 430 kts 339°
2026-04-25 12:34 29.58631 -83.01551 33924 ft 431 kts 338°
2026-04-25 12:35 29.64221 -83.04209 33956 ft 432 kts 337°
2026-04-25 12:35 29.69812 -83.06883 33951 ft 431 kts 337°
2026-04-25 12:36 29.75353 -83.09532 33959 ft 431 kts 337°
2026-04-25 12:36 29.80955 -83.12212 33953 ft 431 kts 337°
2026-04-25 12:37 29.86575 -83.14903 33950 ft 441 kts 337°
2026-04-25 12:37 29.92259 -83.17630 33954 ft 443 kts 337°
2026-04-25 12:38 29.98006 -83.20390 33965 ft 444 kts 337°
2026-04-25 12:38 30.03705 -83.23128 33964 ft 445 kts 337°
2026-04-25 12:39 30.09456 -83.25898 33964 ft 445 kts 337°
2026-04-25 12:39 30.15170 -83.28653 33958 ft 445 kts 337°
2026-04-25 12:40 30.20868 -83.31403 33949 ft 444 kts 337°
2026-04-25 12:40 30.26611 -83.34172 33945 ft 445 kts 337°
2026-04-25 12:41 30.32328 -83.36926 33944 ft 445 kts 337°
2026-04-25 12:41 30.38053 -83.39693 33941 ft 445 kts 337°
2026-04-25 12:42 30.43829 -83.42489 33944 ft 445 kts 337°
2026-04-25 12:42 30.49565 -83.45270 33943 ft 446 kts 337°
2026-04-25 12:43 30.55303 -83.48055 33943 ft 445 kts 337°
2026-04-25 12:43 30.63908 -83.52238 33946 ft 446 kts 337°
2026-04-25 12:44 30.69653 -83.55037 33950 ft 446 kts 337°
2026-04-25 12:45 30.78246 -83.59230 33952 ft 446 kts 337°
2026-04-25 12:45 30.86856 -83.63441 33953 ft 446 kts 337°
2026-04-25 12:46 30.92594 -83.66250 33955 ft 446 kts 337°
2026-04-25 12:46 30.98416 -83.69103 33957 ft 447 kts 336°
2026-04-25 12:47 31.04169 -83.71928 33955 ft 447 kts 336°
2026-04-25 12:47 31.09920 -83.74755 33956 ft 447 kts 336°
2026-04-25 12:48 31.15702 -83.77602 33953 ft 446 kts 336°
2026-04-25 12:48 31.21467 -83.80444 33951 ft 446 kts 336°
2026-04-25 12:49 31.27196 -83.83273 33952 ft 447 kts 336°
2026-04-25 12:49 31.32939 -83.86113 33950 ft 447 kts 336°
2026-04-25 12:50 31.38664 -83.88950 33952 ft 447 kts 336°
2026-04-25 12:50 31.44384 -83.91787 33958 ft 447 kts 336°
2026-04-25 12:51 31.50216 -83.94502 33947 ft 447 kts 340°
2026-04-25 12:51 31.56206 -83.96520 33947 ft 447 kts 346°
2026-04-25 12:52 31.62351 -83.97961 33946 ft 448 kts 348°
2026-04-25 12:52 31.68481 -83.99315 33947 ft 449 kts 348°
2026-04-25 12:53 31.74657 -84.00681 33953 ft 450 kts 347°
2026-04-25 12:53 31.80843 -84.02058 33951 ft 450 kts 347°
2026-04-25 12:54 31.86999 -84.03429 33953 ft 449 kts 347°
2026-04-25 12:54 31.93193 -84.04810 33954 ft 449 kts 347°
2026-04-25 12:55 31.98330 -84.05961 33951 ft 450 kts 347°
2026-04-25 12:55 32.05585 -84.07587 33951 ft 451 kts 347°
2026-04-25 12:56 32.11759 -84.08971 33942 ft 451 kts 347°
2026-04-25 12:56 32.17977 -84.10367 33947 ft 450 kts 347°
2026-04-25 12:57 32.24129 -84.11751 33948 ft 450 kts 347°
2026-04-25 12:57 32.30292 -84.13139 33952 ft 451 kts 347°
2026-04-25 12:58 32.36482 -84.14535 33957 ft 451 kts 347°
2026-04-25 12:58 32.42693 -84.15936 33958 ft 453 kts 346°
2026-04-25 12:59 32.48908 -84.17341 33956 ft 452 kts 346°
2026-04-25 12:59 32.55135 -84.18755 33954 ft 452 kts 346°
2026-04-25 13:00 32.60291 -84.19922 33959 ft 452 kts 346°
2026-04-25 13:00 32.67532 -84.21567 33947 ft 452 kts 346°
2026-04-25 13:01 32.73745 -84.22981 33947 ft 453 kts 346°
2026-04-25 13:01 32.79978 -84.24400 33946 ft 454 kts 346°
2026-04-25 13:02 32.86202 -84.25818 33948 ft 454 kts 346°
2026-04-25 13:02 32.92419 -84.27239 33950 ft 454 kts 346°
2026-04-25 13:03 32.98635 -84.28661 33947 ft 453 kts 346°
2026-04-25 13:03 33.04879 -84.30091 33950 ft 454 kts 345°
2026-04-25 13:04 33.11121 -84.31523 33943 ft 455 kts 345°
2026-04-25 13:04 33.17365 -84.32960 33946 ft 456 kts 345°
2026-04-25 13:05 33.23597 -84.34392 33944 ft 455 kts 345°
2026-04-25 13:05 33.29816 -84.35826 33945 ft 455 kts 345°
2026-04-25 13:06 33.36048 -84.37266 33948 ft 455 kts 345°
2026-04-25 13:06 33.42279 -84.38705 33949 ft 455 kts 345°
2026-04-25 13:07 33.48531 -84.40153 33948 ft 456 kts 345°
2026-04-25 13:07 33.54760 -84.41599 33945 ft 456 kts 345°
2026-04-25 13:08 33.61005 -84.43053 33946 ft 457 kts 345°
2026-04-25 13:08 33.67278 -84.44467 33942 ft 457 kts 346°
2026-04-25 13:09 33.73557 -84.45832 33939 ft 458 kts 346°
2026-04-25 13:09 33.79841 -84.47212 33937 ft 458 kts 345°
2026-04-25 13:10 33.86151 -84.48601 33939 ft 458 kts 346°
2026-04-25 13:10 33.92448 -84.49992 33939 ft 458 kts 345°
2026-04-25 13:11 33.98733 -84.51384 33941 ft 458 kts 345°
2026-04-25 13:11 34.05033 -84.52802 33939 ft 458 kts 345°
2026-04-25 13:12 34.11323 -84.54343 33937 ft 457 kts 344°
2026-04-25 13:12 34.16531 -84.55638 33940 ft 459 kts 344°
2026-04-25 13:13 34.23850 -84.57446 33942 ft 459 kts 344°
2026-04-25 13:13 34.30130 -84.58998 33944 ft 459 kts 343°
2026-04-25 13:14 34.36415 -84.60555 33940 ft 458 kts 343°
2026-04-25 13:14 34.42689 -84.62109 33935 ft 458 kts 343°
2026-04-25 13:15 34.49003 -84.63676 33932 ft 458 kts 343°
2026-04-25 13:15 34.55257 -84.65234 33927 ft 460 kts 343°
2026-04-25 13:16 34.61560 -84.66801 33926 ft 460 kts 342°
2026-04-25 13:16 34.67845 -84.68368 33931 ft 460 kts 342°
2026-04-25 13:17 34.74153 -84.69945 33930 ft 461 kts 342°
2026-04-25 13:17 34.80453 -84.71518 33928 ft 460 kts 342°
2026-04-25 13:18 34.86723 -84.73090 33934 ft 460 kts 342°
2026-04-25 13:18 34.92999 -84.74664 33929 ft 461 kts 342°
2026-04-25 13:19 34.99276 -84.76242 33926 ft 462 kts 342°
2026-04-25 13:19 35.04572 -84.77576 33927 ft 461 kts 342°
2026-04-25 13:20 35.11957 -84.79437 33923 ft 463 kts 342°
2026-04-25 13:20 35.18327 -84.81046 33919 ft 463 kts 342°
2026-04-25 13:21 35.24632 -84.82640 33919 ft 463 kts 341°
2026-04-25 13:21 35.30976 -84.84249 33917 ft 464 kts 341°
2026-04-25 13:22 35.37341 -84.85863 33918 ft 464 kts 341°
2026-04-25 13:23 35.46822 -84.88273 33916 ft 465 kts 341°
2026-04-25 13:23 35.53227 -84.89905 33916 ft 464 kts 342°
2026-04-25 13:24 35.59567 -84.91522 33915 ft 466 kts 341°
2026-04-25 13:24 35.65939 -84.93151 33917 ft 466 kts 342°
2026-04-25 13:25 35.72331 -84.94786 33919 ft 467 kts 341°
2026-04-25 13:25 35.78712 -84.96423 33923 ft 467 kts 341°
2026-04-25 13:26 35.85072 -84.98057 33926 ft 468 kts 341°
2026-04-25 13:26 35.91457 -84.99702 33942 ft 468 kts 341°
2026-04-25 13:27 35.97838 -85.01346 33946 ft 469 kts 341°
2026-04-25 13:27 36.04280 -85.03005 33955 ft 468 kts 341°
2026-04-25 13:28 36.10622 -85.04645 33955 ft 468 kts 341°
2026-04-25 13:28 36.17001 -85.06295 33947 ft 468 kts 341°
2026-04-25 13:29 36.23403 -85.07954 33949 ft 468 kts 341°
2026-04-25 13:29 36.29819 -85.09623 33948 ft 469 kts 341°
2026-04-25 13:30 36.39439 -85.12128 33941 ft 470 kts 341°
2026-04-25 13:31 36.49079 -85.14645 33936 ft 469 kts 341°
2026-04-25 13:31 36.55547 -85.16339 33934 ft 470 kts 341°
2026-04-25 13:32 36.61948 -85.18012 33932 ft 470 kts 341°
2026-04-25 13:32 36.68409 -85.19709 33928 ft 470 kts 341°
2026-04-25 13:33 36.74834 -85.21397 33924 ft 470 kts 341°
2026-04-25 13:33 36.81241 -85.23086 33926 ft 470 kts 341°
2026-04-25 13:34 36.87659 -85.24781 33924 ft 471 kts 341°
2026-04-25 13:34 36.94094 -85.26484 33924 ft 471 kts 341°
2026-04-25 13:35 37.00528 -85.28186 33919 ft 473 kts 341°
2026-04-25 13:35 37.06983 -85.29896 33926 ft 472 kts 341°
2026-04-25 13:36 37.13420 -85.31604 33929 ft 473 kts 341°
2026-04-25 13:36 37.19851 -85.33316 33928 ft 473 kts 341°
2026-04-25 13:37 37.26315 -85.35040 33934 ft 473 kts 341°
2026-04-25 13:37 37.32730 -85.36755 33950 ft 473 kts 341°
2026-04-25 13:38 37.39202 -85.38486 33955 ft 473 kts 341°
2026-04-25 13:38 37.45643 -85.40213 33951 ft 474 kts 341°
2026-04-25 13:39 37.52094 -85.41944 33951 ft 474 kts 341°
2026-04-25 13:39 37.58561 -85.43684 33942 ft 474 kts 341°
2026-04-25 13:40 37.65041 -85.45431 33935 ft 475 kts 341°
2026-04-25 13:40 37.71490 -85.47173 33940 ft 476 kts 341°
2026-04-25 13:41 37.77953 -85.48916 33890 ft 468 kts 341°
2026-04-25 13:41 37.81107 -85.49766 33601 ft 461 kts 341°
2026-04-25 13:41 37.84257 -85.50623 33025 ft 457 kts 342°
2026-04-25 13:41 37.87361 -85.51468 32380 ft 456 kts 342°
2026-04-25 13:42 37.90429 -85.52306 31743 ft 454 kts 342°
2026-04-25 13:42 37.93516 -85.53149 30993 ft 455 kts 342°
2026-04-25 13:42 37.96617 -85.53996 30195 ft 457 kts 343°
2026-04-25 13:42 37.99731 -85.54845 29347 ft 459 kts 343°
2026-04-25 13:43 38.02878 -85.55702 28678 ft 456 kts 343°
2026-04-25 13:43 38.05967 -85.56538 28201 ft 450 kts 343°
2026-04-25 13:43 38.09012 -85.57345 27947 ft 446 kts 345°
2026-04-25 13:43 38.12086 -85.57978 27947 ft 450 kts 348°
2026-04-25 13:44 38.15212 -85.58475 27940 ft 452 kts 348°
2026-04-25 13:44 38.18309 -85.58927 27713 ft 450 kts 349°
2026-04-25 13:44 38.21426 -85.59374 27456 ft 447 kts 349°
2026-04-25 13:44 38.24515 -85.59823 27199 ft 445 kts 349°
2026-04-25 13:45 38.27583 -85.60271 26934 ft 443 kts 349°
2026-04-25 13:45 38.30637 -85.60721 26677 ft 441 kts 349°
2026-04-25 13:45 38.33691 -85.61173 26420 ft 439 kts 349°
2026-04-25 13:45 38.36744 -85.61626 26163 ft 438 kts 349°
2026-04-25 13:46 38.39754 -85.62075 25906 ft 436 kts 348°
2026-04-25 13:46 38.42747 -85.62527 25646 ft 434 kts 348°
2026-04-25 13:46 38.45747 -85.62986 25399 ft 432 kts 349°
2026-04-25 13:46 38.48758 -85.63447 25146 ft 432 kts 349°
2026-04-25 13:47 38.51728 -85.63901 24870 ft 430 kts 348°
2026-04-25 13:47 38.54701 -85.64356 24531 ft 428 kts 348°
2026-04-25 13:47 38.57632 -85.64802 24032 ft 426 kts 349°
2026-04-25 13:47 38.60546 -85.65233 23903 ft 422 kts 348°
2026-04-25 13:48 38.63503 -85.65665 23908 ft 424 kts 348°
2026-04-25 13:48 38.66436 -85.66094 23907 ft 424 kts 348°
2026-04-25 13:48 38.69350 -85.66520 23881 ft 424 kts 348°
2026-04-25 13:48 38.72285 -85.66951 23545 ft 426 kts 348°
2026-04-25 13:49 38.75236 -85.67387 22955 ft 425 kts 348°
2026-04-25 13:49 38.78177 -85.67822 22429 ft 422 kts 349°
2026-04-25 13:49 38.81075 -85.68251 21961 ft 418 kts 349°
2026-04-25 13:49 38.83930 -85.68675 21484 ft 413 kts 349°
2026-04-25 13:50 38.86774 -85.69095 21013 ft 409 kts 350°
2026-04-25 13:50 38.89586 -85.69511 20555 ft 405 kts 350°
2026-04-25 13:50 38.92377 -85.69927 20070 ft 401 kts 351°
2026-04-25 13:50 38.95139 -85.70338 19566 ft 398 kts 351°
2026-04-25 13:51 38.97893 -85.70747 19075 ft 394 kts 352°
2026-04-25 13:51 39.00581 -85.71146 18595 ft 390 kts 352°
2026-04-25 13:51 39.03254 -85.71566 18121 ft 386 kts 352°
2026-04-25 13:51 39.05900 -85.72029 17647 ft 382 kts 352°
2026-04-25 13:52 39.08521 -85.72493 17168 ft 379 kts 352°
2026-04-25 13:52 39.11118 -85.72952 16678 ft 375 kts 352°
2026-04-25 13:52 39.13684 -85.73464 16223 ft 371 kts 348°
2026-04-25 13:52 39.16151 -85.74301 15772 ft 367 kts 342°
2026-04-25 13:53 39.18544 -85.75491 15295 ft 363 kts 337°
2026-04-25 13:53 39.20827 -85.76793 14848 ft 360 kts 336°
2026-04-25 13:53 39.23111 -85.78125 14410 ft 357 kts 336°
2026-04-25 13:53 39.25374 -85.79442 13908 ft 355 kts 336°
2026-04-25 13:54 39.27618 -85.80740 13422 ft 352 kts 336°
2026-04-25 13:54 39.29835 -85.82018 12986 ft 349 kts 337°
2026-04-25 13:54 39.32016 -85.83372 12505 ft 346 kts 333°
2026-04-25 13:54 39.34056 -85.84991 12036 ft 344 kts 327°
2026-04-25 13:55 39.35963 -85.86856 11567 ft 341 kts 323°
2026-04-25 13:55 39.37813 -85.88783 11130 ft 338 kts 322°
2026-04-25 13:55 39.39629 -85.90695 10687 ft 335 kts 322°
2026-04-25 13:55 39.41412 -85.92570 10441 ft 326 kts 322°
2026-04-25 13:56 39.43124 -85.94367 10290 ft 313 kts 323°
2026-04-25 13:56 39.44786 -85.96110 10171 ft 300 kts 323°
2026-04-25 13:56 39.46383 -85.97777 10022 ft 288 kts 323°
2026-04-25 13:56 39.47965 -85.99348 9730 ft 282 kts 325°
2026-04-25 13:57 39.49530 -86.00871 9353 ft 280 kts 325°
2026-04-25 13:57 39.50554 -86.01866 9114 ft 278 kts 325°
2026-04-25 13:57 39.52602 -86.03864 8636 ft 275 kts 325°
2026-04-25 13:57 39.54127 -86.05361 8282 ft 273 kts 324°
2026-04-25 13:58 39.55644 -86.06853 7935 ft 271 kts 324°
2026-04-25 13:58 39.57127 -86.08312 7594 ft 268 kts 324°
2026-04-25 13:58 39.58609 -86.09774 7256 ft 265 kts 323°
2026-04-25 13:58 39.60028 -86.11340 6917 ft 263 kts 319°
2026-04-25 13:59 39.61331 -86.13000 6583 ft 261 kts 317°
2026-04-25 13:59 39.62594 -86.14655 6255 ft 259 kts 317°
2026-04-25 13:59 39.63854 -86.16311 6107 ft 248 kts 317°
2026-04-25 13:59 39.65019 -86.17853 6073 ft 234 kts 314°
2026-04-25 14:00 39.65780 -86.19673 5974 ft 227 kts 281°
2026-04-25 14:00 39.65597 -86.21656 5977 ft 228 kts 249°
2026-04-25 14:00 39.64655 -86.23308 5771 ft 230 kts 227°
2026-04-25 14:00 39.63467 -86.24764 5319 ft 236 kts 225°
2026-04-25 14:01 39.62266 -86.26221 4963 ft 237 kts 226°
2026-04-25 14:01 39.61091 -86.27674 4650 ft 236 kts 226°
2026-04-25 14:01 39.59906 -86.29164 4327 ft 235 kts 227°
2026-04-25 14:01 39.58746 -86.30637 4006 ft 234 kts 227°
2026-04-25 14:02 39.57581 -86.32130 3691 ft 234 kts 227°
2026-04-25 14:02 39.56438 -86.33615 3435 ft 229 kts 227°
2026-04-25 14:02 39.55493 -86.35197 3271 ft 215 kts 252°
2026-04-25 14:02 39.55298 -86.36426 3199 ft 198 kts 275°
2026-04-25 14:03 39.55856 -86.38511 2979 ft 181 kts 303°
2026-04-25 14:03 39.56490 -86.39941 2978 ft 182 kts 305°
2026-04-25 14:03 39.57137 -86.41351 2973 ft 182 kts 305°
2026-04-25 14:03 39.57847 -86.42687 2954 ft 178 kts 322°
2026-04-25 14:04 39.58965 -86.43230 2955 ft 172 kts
2026-04-25 14:04 39.60078 -86.42735 2981 ft 172 kts 30°
2026-04-25 14:04 39.61042 -86.41797 2981 ft 173 kts 38°
2026-04-25 14:04 39.61949 -86.40739 2957 ft 174 kts 41°
2026-04-25 14:05 39.62814 -86.39657 2797 ft 171 kts 42°
2026-04-25 14:05 39.63646 -86.38590 2554 ft 164 kts 42°
2026-04-25 14:05 39.64451 -86.37555 2333 ft 163 kts 41°
2026-04-25 14:05 39.65260 -86.36521 2116 ft 163 kts 41°
2026-04-25 14:06 39.66045 -86.35516 1898 ft 150 kts 41°
2026-04-25 14:06 39.66757 -86.34604 1679 ft 135 kts 41°
2026-04-25 14:06 39.67418 -86.33761 1514 ft 133 kts 40°
2026-04-25 14:06 39.68082 -86.32916 1343 ft 133 kts 41°
2026-04-25 14:07 39.68745 -86.32066 1174 ft 132 kts 41°
2026-04-25 14:07 39.69397 -86.31235 996 ft 132 kts 41°
2026-04-25 14:07 39.70061 -86.30393 840 ft 132 kts 41°
2026-04-25 14:07 39.70689 -86.29599 791 ft 112 kts 46°
2026-04-25 14:08 39.71114 -86.29053 792 ft 60 kts 44°
2026-04-25 14:08 39.71307 -86.28813 790 ft 28 kts 44°
2026-04-25 14:08 39.71463 -86.28612 789 ft 34 kts 45°
2026-04-25 14:08 39.71625 -86.28407 789 ft 19 kts 45°
2026-04-25 14:09 39.71711 -86.28403 789 ft 13 kts 318°
2026-04-25 14:09 39.71759 -86.28468 789 ft 9 kts 309°
2026-04-25 14:09 39.71726 -86.28575 788 ft 19 kts 224°
2026-04-25 14:09 39.71656 -86.28663 786 ft 20 kts 225°
2026-04-25 14:10 39.71581 -86.28799 787 ft 12 kts 289°
2026-04-25 14:10 39.71639 -86.28896 785 ft 13 kts 292°
2026-04-25 14:10 39.71605 -86.29004 784 ft 13 kts 231°
2026-04-25 14:10 39.71590 -86.29105 784 ft 12 kts 310°
2026-04-25 14:11 39.71663 -86.29186 783 ft 14 kts 321°
2026-04-25 14:11 39.71744 -86.29275 781 ft 15 kts 319°
2026-04-25 14:11 39.71822 -86.29363 779 ft 13 kts 314°
2026-04-25 14:11 39.71821 -86.29452 777 ft 8 kts 226°
2026-04-25 14:12 39.71795 -86.29484 777 ft 5 kts 219°
2026-04-25 14:12 39.71760 -86.29519 776 ft 6 kts 220°
2026-04-25 14:12 39.71760 -86.29555 776 ft 3 kts 307°
2026-04-25 14:12 39.71779 -86.29585 776 ft 3 kts 309°
2026-04-25 14:13 39.71786 -86.29596 776 ft 0 kts 309°